Flag for Portugal Weather past 2 weeks in Cascais, Portugal

Now
59 °F

Scattered clouds.


Feels Like: 57 °F
Forecast: 58 / 65 °F
Wind: 10 mph from West

Location: Lisbon Portela Airport

Current Time: Apr 26, 2015 at 10:18:19 AM

Latest Report: Apr 26, 2015 at 10:00 AM


Visibility: N/A

Pressure: 29.83 "Hg

Humidity: 88%

Dew point: 55 °F

Location of CascaisLocation

Historic Weather in Cascais — Graph

°F

Cascais temperature yesterday

Maximum temperature yesterday: 64 °F (at 1:00 PM)
Minimum temperature yesterday: 59 °F (at 5:00 AM)
Average temperature yesterday: 61 °F

Past Weeks' High & Low Weather Summary

 TemperatureHumidityPressure
High75 °F (Apr 13, 4:00 PM)100% (Apr 15, 1:30 AM)30.27 "Hg (Apr 15, 1:30 AM)
Low48 °F (Apr 20, 4:30 AM)35% (Apr 23, 3:00 PM)29.77 "Hg (Apr 26, 5:00 AM)
Average60 °F76%30.05 "Hg
* Reported Apr 11 9:00 AM — Apr 26 9:00 AM, Cascais, Weather by CustomWeather, © 2015

Note: Actual official high and low records may vary slightly from our data, if they occured in-between our weather recording intervals... More about our weather records

Advertising

Cascais weather history for previous 24 hours

 ConditionsComfort  
Time TempWeatherWind HumidityBarometerVisibility
9:00 AM
Sun, Apr 26
59 °FScattered clouds.7 mph88%29.83 "HgN/A
8:30 AM59 °FPassing clouds.5 mph88%29.83 "HgN/A
8:00 AM57 °FPassing clouds.3 mph94%29.83 "HgN/A
7:30 AM55 °FPassing clouds.6 mph94%29.80 "HgN/A
7:00 AM55 °FPassing clouds.6 mph94%29.80 "HgN/A
6:30 AM57 °FPassing clouds.3 mph94%29.77 "HgN/A
6:00 AM57 °FPassing clouds.5 mph94%29.80 "HgN/A
5:30 AM57 °FPassing clouds.3 mph94%29.77 "HgN/A
5:00 AM57 °FPassing clouds.6 mph94%29.77 "HgN/A
4:30 AM57 °FLight rain. Passing clouds.8 mph100%29.80 "HgN/A
4:00 AM57 °FLight rain. Passing clouds.9 mph100%29.80 "HgN/A
3:30 AM59 °FLight rain. Passing clouds.7 mph94%29.80 "Hg4 mi
3:00 AM59 °FLight rain. Passing clouds.8 mph94%29.80 "Hg6 mi
2:30 AM59 °FLight rain. Passing clouds.9 mph94%29.80 "Hg5 mi
2:00 AM59 °FHeavy rain. Fog.14 mph94%29.80 "Hg1 mi
1:30 AM59 °FRain. Fog.22 mph94%29.83 "Hg2 mi
1:00 AM59 °FLight rain. Partly cloudy.22 mph100%29.83 "Hg3 mi
12:30 AM59 °FLight rain. Partly cloudy.22 mph100%29.83 "Hg4 mi
12:00 AM59 °FLight rain. Partly cloudy.21 mph100%29.83 "Hg3 mi
11:30 PM
Sat, Apr 25
59 °FLight rain. Partly cloudy.17 mph100%29.86 "Hg3 mi
11:00 PM61 °FLight rain. Partly cloudy.22 mph94%29.86 "Hg4 mi
10:00 PM59 °FLight rain. Partly cloudy.20 mph100%29.86 "Hg4 mi
9:30 PM61 °FLight rain. Partly cloudy.23 mph94%29.89 "Hg3 mi
9:00 PM61 °FLight rain. Broken clouds.20 mph88%29.86 "Hg4 mi
8:30 PM61 °FLight rain. Broken clouds.18 mph94%29.86 "Hg4 mi
8:00 PM61 °FLight rain. Broken clouds.20 mph94%29.89 "Hg3 mi
7:30 PM61 °FLight rain. Broken clouds.17 mph94%29.89 "Hg4 mi
7:00 PM61 °FSprinkles. Broken clouds.21 mph94%29.89 "Hg4 mi
6:30 PM63 °FSprinkles. Broken clouds.18 mph88%29.89 "Hg5 mi
6:00 PM63 °FSprinkles. Broken clouds.16 mph88%29.92 "Hg5 mi
5:30 PM63 °FBroken clouds.20 mph88%29.92 "HgN/A
5:00 PM63 °FLight rain. Broken clouds.18 mph88%29.92 "HgN/A
4:30 PM64 °FBroken clouds.18 mph83%29.92 "HgN/A
4:00 PM64 °FPartly sunny.18 mph78%29.92 "HgN/A
3:30 PM64 °FPartly sunny.21 mph83%29.92 "HgN/A
3:00 PM64 °FScattered clouds.18 mph83%29.95 "HgN/A
2:30 PM63 °FPartly sunny.20 mph83%29.95 "HgN/A
2:00 PM63 °FLight rain. Partly sunny.18 mph88%29.95 "HgN/A
1:30 PM63 °FPartly sunny.16 mph83%29.95 "HgN/A
1:00 PM64 °FPartly sunny.17 mph78%29.98 "HgN/A
12:30 PM63 °FPartly sunny.17 mph83%29.98 "HgN/A
12:00 PM63 °FPartly sunny.16 mph88%29.98 "HgN/A
11:30 AM63 °FPartly sunny.14 mph88%29.98 "HgN/A
11:00 AM63 °FPartly sunny.13 mph88%29.98 "HgN/A
10:30 AM63 °FPartly sunny.13 mph83%29.98 "HgN/A
10:00 AM63 °FPartly sunny.13 mph88%29.98 "HgN/A
Weather by CustomWeather, © 2015

See weather overviewHow to use our weather pages